Location: Domont
(49.0278°N, 2.3264°E)
Time: 02:57:16
(UTC+00:00)

AO-73 - Visible Passes

Search period start: 28 June 2022 00:00
Search period end: 08 July 2022 00:00
Orbit: 579 x 658 km, 97.6° (Epoch: 27 June)

Date Brightness Start Highest point End Pass type
(mag) Time Alt. Az. Time Alt. Az. Time Alt. Az.
02 Jul ? 02:40:34 10° NE 02:42:58 14° E 02:45:22 10° ESE visible
03 Jul ? 02:56:34 10° NE 02:59:54 20° E 03:03:15 10° SE visible
07 Jul ? 02:29:15 10° ENE 02:30:26 11° E 02:31:37 10° E visible
